Date,TemperatureHighF,TemperatureAvgF,TemperatureLowF,DewpointHighF,DewpointAvgF,DewpointLowF,HumidityHigh,HumidityAvg,HumidityLow,PressureMaxIn,PressureMinIn,WindSpeedMaxMPH,WindSpeedAvgMPH,GustSpeedMaxMPH,PrecipitationSumIn
2013-1-1,24.6,20.6,19.0,12.2,5.8,3.0,62,52,46,29.32,29.17,24,5,24,0.00
2013-1-2,27.1,24.0,20.7,17.6,13.1,6.2,79,63,50,29.35,29.20,18,5,20,0.00
2013-1-3,29.5,26.9,23.2,24.2,18.3,12.3,90,70,52,29.29,29.17,26,9,30,0.00
2013-1-4,35.8,28.9,26.6,26.5,19.6,16.1,80,68,52,29.32,29.06,34,13,34,0.00
2013-1-5,41.7,32.7,28.4,29.6,19.3,15.2,82,58,41,29.44,29.06,15,4,18,18.06
2013-1-6,40.3,31.4,26.4,27.0,21.2,14.9,78,66,52,29.47,29.03,20,4,20,0.00
2013-1-7,40.6,33.0,26.1,25.0,18.9,13.3,68,56,43,29.47,29.12,32,9,32,0.04
2013-1-8,48.4,37.3,33.1,28.8,26.2,20.7,83,65,41,29.38,29.17,18,5,115,0.00
2013-1-9,39.6,36.8,34.9,29.9,22.6,17.4,71,56,46,29.65,29.03,37,12,37,0.04
2013-1-10,46.4,35.9,28.4,24.7,19.8,16.5,75,53,34,29.79,29.32,13,3,13,0.00
2013-1-11,44.6,39.8,34.3,43.9,37.7,18.2,100,93,45,29.32,28.85,18,4,18,0.54
2013-1-12,53.1,44.1,34.0,46.3,35.3,21.6,98,73,43,29.17,28.85,31,10,34,0.00
2013-1-13,34.3,30.6,26.6,34.3,26.3,19.1,100,84,62,29.20,29.06,23,3,23,0.00
2013-1-14,26.4,22.6,20.3,22.5,9.5,4.0,92,58,42,29.59,29.20,27,10,27,0.00
2013-1-15,27.5,23.1,16.7,15.2,8.6,1.5,66,54,42,29.62,29.26,115,8,115,0.00
2013-1-16,31.1,26.4,22.1,28.6,18.5,7.8,98,72,51,29.26,28.85,28,10,29,0.00
2013-1-17,21.9,14.9,12.7,11.3,-0.6,-5.5,68,50,42,29.59,29.20,24,7,27,0.00
2013-1-18,37.4,20.7,12.9,30.2,9.7,-5.3,88,63,43,29.59,28.94,18,7,18,0.00
2013-1-19,37.0,32.3,26.6,35.8,28.3,15.4,98,85,64,29.03,28.64,30,5,33,0.17
2013-1-20,26.2,15.1,11.3,15.4,0.9,-5.4,83,53,44,29.38,28.70,37,9,39,0.00
2013-1-21,12.0,7.7,0.9,-4.8,-8.8,-15.2,46,46,46,29.32,29.17,27,9,27,0.00
2013-1-22,5.2,2.2,0.7,-11.2,-13.8,-15.2,46,46,46,29.44,29.29,15,5,17,0.00
2013-1-23,12.0,10.9,5.9,-0.3,-1.4,-10.4,57,57,46,29.47,29.32,15,4,15,31.48
2013-1-24,24.4,9.4,-2.0,2.7,-7.1,-13.5,57,47,35,29.91,29.47,8,2,8,0.00
2013-1-25,24.3,14.7,7.9,13.1,1.6,-11.4,84,57,40,29.68,29.17,17,4,18,0.00
2013-1-26,39.4,23.4,14.0,16.5,12.0,4.8,86,64,37,29.62,29.26,8,2,11,0.00
2013-1-27,32.4,26.0,21.0,25.3,16.2,9.3,91,67,50,29.62,29.23,17,4,17,0.00
2013-1-28,38.1,30.6,27.3,34.1,27.8,25.0,97,89,75,29.26,29.06,10,1,10,0.00
2013-1-29,48.9,38.1,29.1,48.4,36.9,0.0,98,96,88,29.20,28.67,17,4,17,0.78
2013-1-30,35.6,30.6,18.5,34.9,30.0,16.1,98,98,90,28.70,28.32,8,1,8,0.17
2013-1-31,23.0,16.8,13.6,16.1,7.9,5.1,90,68,52,29.09,28.44,19,3,19,0.00
2013-2-1,17.1,13.8,10.0,7.3,2.6,-0.4,72,61,53,29.38,29.09,20,8,20,0.00
2013-2-2,33.3,14.4,9.5,11.7,-0.5,-8.0,64,52,33,29.32,29.26,18,4,18,0.00
2013-2-3,21.2,13.3,8.6,10.7,-2.0,-8.8,83,50,44,29.26,29.03,19,6,19,0.00
2013-2-4,24.1,15.5,10.2,6.8,0.4,-5.1,64,51,46,29.23,29.12,19,4,19,0.00
2013-2-5,23.4,16.2,8.1,17.8,3.6,-7.3,82,58,46,29.23,28.88,20,6,20,0.00
2013-2-6,32.2,20.9,13.6,18.6,7.4,-0.3,87,57,37,29.47,29.23,15,4,15,0.00
2013-2-7,34.2,23.5,19.9,25.7,20.9,-7.3,100,90,82,29.44,29.32,13,4,13,0.00
2013-2-8,39.2,22.2,10.8,17.7,10.5,0.3,88,63,39,29.65,29.35,12,3,12,0.04
2013-2-9,38.1,20.1,7.5,13.8,5.0,-3.1,75,53,34,29.68,29.44,13,3,13,0.00
2013-2-10,39.4,30.2,22.6,35.7,17.6,10.0,98,61,41,29.47,28.73,18,6,19,0.00
2013-2-11,40.1,33.8,25.9,38.7,30.9,14.4,98,89,60,29.03,28.55,30,8,30,0.17
2013-2-12,27.5,25.8,24.8,19.1,15.9,12.3,75,66,54,29.20,29.00,24,9,26,0.00
2013-2-13,40.1,31.9,26.1,26.7,23.7,19.0,85,72,52,29.06,28.88,16,5,16,0.00
2013-2-14,38.5,32.2,23.5,34.1,29.3,17.4,98,89,77,29.06,28.82,17,3,17,0.08
2013-2-15,22.6,18.5,16.0,7.0,2.0,-1.6,53,48,43,29.38,29.06,15,5,15,32.72
2013-2-16,41.4,17.7,7.5,14.8,0.8,-9.4,77,48,29,29.38,29.29,10,2,10,0.04
2013-2-17,28.9,15.6,7.0,8.4,-0.9,-9.9,58,48,40,29.44,29.29,12,3,14,0.00
2013-2-18,44.6,29.8,16.7,35.0,13.3,2.5,97,51,34,29.32,28.61,17,6,18,0.17
2013-2-19,39.7,26.5,14.2,39.2,23.9,9.1,98,90,58,29.06,28.35,37,14,39,0.08
2013-2-20,19.2,15.0,11.3,11.2,6.2,-1.7,83,69,46,29.50,29.06,24,6,24,0.00
2013-2-21,34.7,19.2,12.6,12.7,6.3,1.8,84,59,32,29.68,29.47,10,3,11,0.00
2013-2-22,32.5,25.8,16.9,25.2,21.0,12.9,93,82,73,29.50,28.94,14,4,18,0.00
2013-2-23,36.3,28.5,25.7,28.6,23.6,19.1,94,82,54,29.00,28.88,14,3,14,0.00
2013-2-24,43.7,30.2,21.4,28.0,24.1,19.4,95,80,49,29.32,28.94,10,2,10,0.08
2013-2-25,40.1,32.2,28.6,26.1,21.1,16.2,85,65,41,29.41,29.29,10,1,10,0.00
2013-2-26,39.2,31.3,24.4,23.0,19.4,14.7,72,61,45,29.44,29.03,20,5,22,0.04
2013-2-27,36.5,32.4,30.2,31.5,27.9,0.0,100,85,72,29.03,28.91,18,5,18,0.00
2013-2-28,34.0,29.8,22.1,30.9,20.5,7.9,97,70,51,29.35,28.94,10,4,10,0.00
2013-3-1,37.6,20.3,15.1,13.7,6.3,3.5,62,55,35,29.50,29.35,9,3,11,0.00
2013-3-2,35.2,21.8,12.7,13.4,7.0,1.3,69,53,38,29.47,29.35,10,3,10,0.00
2013-3-3,38.8,22.2,9.5,15.7,7.9,0.1,74,55,36,29.38,29.29,8,2,10,0.00
2013-3-4,41.2,23.8,10.0,14.6,7.7,-0.4,76,53,30,29.44,29.35,8,2,8,0.00
2013-3-5,38.1,24.6,14.9,15.8,11.6,2.2,75,58,40,29.44,29.26,14,4,14,0.00
2013-3-6,47.5,32.8,25.0,27.6,23.0,14.9,92,69,41,29.53,29.32,13,2,14,0.00
2013-3-7,36.0,27.6,23.5,21.1,14.2,10.9,80,58,41,29.71,29.53,9,2,11,0.05
2013-3-8,48.7,31.1,22.8,27.1,19.1,13.9,82,63,37,29.79,29.59,10,1,10,0.00
2013-3-9,47.7,36.4,26.2,33.1,18.9,14.0,90,51,30,29.62,29.17,13,4,15,0.33
2013-3-10,41.4,37.1,34.3,40.6,34.9,31.8,98,92,74,29.20,29.03,15,4,18,0.87
2013-3-11,48.0,37.3,30.7,47.3,36.7,29.9,98,98,91,29.03,28.64,18,4,18,0.54
2013-3-12,30.9,26.0,21.2,30.4,20.2,13.9,98,79,56,29.12,28.70,20,7,22,34.92
2013-3-13,37.9,25.7,18.3,16.5,11.8,4.6,81,58,32,29.47,29.06,17,6,19,0.00
2013-3-14,42.4,29.7,20.7,24.3,14.6,10.8,80,54,35,29.50,29.17,19,5,19,0.04
2013-3-15,39.9,29.4,19.9,30.8,15.6,3.4,98,58,36,29.23,29.09,25,6,28,0.00
2013-3-16,40.1,22.5,16.0,19.9,8.2,1.3,91,56,32,29.29,29.14,13,4,19,0.00
2013-3-17,36.9,23.5,13.3,19.9,3.0,-2.8,91,42,24,29.59,29.26,17,4,19,0.00
2013-3-18,45.3,24.0,12.0,27.7,12.0,-0.3,93,62,30,29.47,28.70,19,5,19,0.00
2013-3-19,30.2,25.6,21.9,29.2,18.7,6.9,96,76,47,29.09,28.67,27,12,32,0.04
2013-3-20,28.2,23.4,20.5,19.9,11.4,3.5,86,61,44,29.12,29.06,27,12,28,0.00
2013-3-21,33.8,26.6,23.9,24.1,14.7,10.4,90,62,44,29.20,29.06,17,5,17,0.00
2013-3-22,44.1,30.1,24.4,23.0,18.0,13.7,80,61,40,29.32,29.14,15,3,17,0.00
2013-3-23,46.8,33.5,26.1,27.8,20.9,15.4,79,62,35,29.38,29.29,12,2,12,35.00
2013-3-24,44.2,31.7,25.9,22.9,17.1,11.3,78,56,30,29.35,29.09,8,2,8,0.00
2013-3-25,43.0,33.7,28.4,26.4,21.2,16.5,79,61,42,29.26,29.06,9,3,11,0.00
2013-3-26,49.3,36.3,30.9,31.4,24.6,16.4,89,66,29,29.41,29.23,13,3,13,0.00
2013-3-27,46.8,35.3,29.3,31.5,24.7,20.2,93,67,39,29.47,29.35,14,4,14,0.00
2013-3-28,46.6,36.6,28.0,31.1,22.9,15.9,89,60,37,29.53,29.47,15,4,17,0.00
2013-3-29,49.6,36.5,27.5,28.8,17.0,9.5,89,49,27,29.59,29.44,13,3,13,35.00
2013-3-30,52.2,40.0,30.0,39.0,18.5,8.3,96,46,19,29.47,29.00,20,5,23,0.13
2013-3-31,43.0,34.6,26.4,40.1,29.0,11.5,98,81,52,29.03,28.79,26,8,26,35.21
2013-4-1,31.6,25.6,22.3,18.6,8.6,3.8,83,49,36,29.35,29.00,24,7,27,0.00
2013-4-2,39.4,28.1,24.1,14.7,8.3,5.0,57,43,31,29.50,29.29,25,6,25,0.00
2013-4-3,31.1,26.5,24.6,12.9,7.5,4.7,52,44,33,29.56,29.50,15,4,15,0.00
2013-4-4,46.8,34.5,27.7,35.5,20.1,6.5,98,59,31,29.50,29.14,31,8,31,0.04
2013-4-5,43.2,33.1,27.9,24.3,14.4,8.8,76,47,29,29.50,29.23,9,3,10,0.00
2013-4-6,46.2,33.6,26.6,28.3,18.9,0.0,79,55,40,29.47,28.76,30,5,30,0.08
2013-4-7,46.9,38.5,32.7,45.9,31.8,21.8,98,79,40,29.17,28.64,26,10,26,0.17
2013-4-8,41.2,35.1,28.6,35.9,30.6,23.2,97,84,56,29.29,29.00,12,3,13,0.42
2013-4-9,45.3,35.9,31.8,40.5,33.9,30.0,98,92,66,29.35,29.26,9,1,9,35.87
2013-4-10,44.2,35.7,32.2,32.6,26.2,16.8,96,70,44,29.38,29.26,12,3,12,35.91
2013-4-11,34.5,31.2,28.6,23.4,17.0,10.9,80,57,38,29.35,29.00,20,8,20,0.00
2013-4-12,37.4,31.8,27.0,29.8,27.2,21.7,95,83,69,29.03,28.79,57,5,57,0.09
2013-4-13,41.7,33.6,30.4,32.2,26.6,19.7,98,77,50,29.14,28.88,26,6,29,36.12
2013-4-14,52.7,37.8,28.6,38.3,21.5,16.5,100,54,29,29.32,29.12,20,4,20,0.17
2013-4-15,52.5,45.0,35.8,50.4,37.8,20.5,98,77,52,29.14,28.97,22,7,22,0.17
2013-4-16,48.0,39.2,31.1,27.3,24.2,21.8,77,56,38,29.59,29.09,26,8,28,0.00
2013-4-17,52.2,38.9,28.4,34.1,26.4,9.5,92,64,32,29.65,29.26,18,4,18,0.00
2013-4-18,50.9,42.8,36.3,50.4,40.9,33.1,98,93,78,29.29,28.50,15,4,18,0.54
2013-4-19,54.5,36.1,24.6,54.0,26.0,11.0,98,68,48,28.91,28.41,39,13,44,0.21
2013-4-20,35.8,27.9,23.0,21.4,11.2,5.2,70,50,34,29.68,28.88,23,6,25,36.95
2013-4-21,52.3,36.7,23.4,19.0,11.0,1.2,51,37,13,29.82,29.53,12,3,13,36.95
2013-4-22,66.7,46.9,37.9,28.6,22.9,18.3,60,40,23,29.56,29.29,16,4,18,0.00
2013-4-23,56.3,42.6,32.5,40.0,30.7,21.3,98,69,34,29.32,29.06,28,5,29,0.29
2013-4-24,45.9,37.7,32.0,32.4,22.0,13.0,98,57,30,29.20,29.12,18,3,18,0.17
2013-4-25,46.4,39.2,36.0,31.9,23.7,14.3,80,55,38,29.50,29.12,28,9,30,0.00
2013-4-26,65.1,48.5,36.1,39.5,26.3,19.7,70,44,23,29.59,29.35,22,5,22,0.12
2013-4-27,70.7,55.6,47.1,44.4,37.5,29.4,81,52,32,29.47,29.23,20,5,20,0.08
2013-4-28,79.7,62.3,48.7,40.2,31.7,0.0,100,37,12,29.26,28.94,12,3,12,0.00
2013-4-29,65.5,55.8,50.2,55.6,48.8,39.5,97,79,46,29.03,28.97,12,3,13,0.21
2013-4-30,75.6,62.1,55.0,56.1,51.2,0.0,100,70,37,29.09,28.88,23,6,23,18.05
2013-5-1,79.5,64.2,40.8,54.8,45.7,28.5,79,53,31,29.44,29.00,18,5,18,37.98
2013-5-2,67.6,46.4,37.0,36.9,32.9,29.8,86,63,31,29.50,29.29,17,3,18,0.00
2013-5-3,76.6,57.2,36.9,43.7,36.6,30.6,84,51,24,29.41,29.17,8,2,8,0.00
2013-5-4,83.3,67.5,56.8,43.0,28.3,4.8,45,25,10,29.32,29.17,14,3,14,37.98
2013-5-5,82.0,61.2,48.4,33.8,22.7,4.9,39,24,9,29.32,29.17,10,3,14,37.98
2013-5-6,80.4,64.5,47.8,38.6,26.3,16.8,46,26,13,29.29,29.14,8,2,8,0.00
2013-5-7,83.7,66.8,52.5,32.5,21.9,8.5,37,21,7,29.26,29.14,9,2,9,0.00
2013-5-8,84.6,67.2,54.7,34.8,22.2,6.0,39,20,6,29.20,29.12,8,2,8,0.00
2013-5-9,79.5,56.5,43.3,41.8,32.6,22.0,88,45,21,29.20,29.06,13,2,15,0.21
2013-5-10,47.5,41.3,36.7,42.4,35.2,30.9,97,80,58,29.20,29.12,14,3,14,0.75
2013-5-11,50.9,38.5,33.3,39.1,33.4,28.5,98,82,55,29.14,28.88,23,4,23,1.21
2013-5-12,38.7,35.2,33.3,34.5,27.9,17.9,98,76,45,29.14,28.94,29,10,29,0.04
2013-5-13,52.2,46.3,34.0,27.3,17.6,8.8,73,33,19,29.35,29.15,18,6,18,39.23
2013-5-14,76.8,56.4,40.3,36.9,28.8,13.9,71,37,21,29.20,28.73,17,4,172,0.04
2013-5-15,74.5,59.8,48.0,41.7,36.5,28.4,77,44,21,28.91,28.58,25,8,25,0.00
2013-5-16,72.7,54.4,43.0,38.5,32.5,0.0,71,46,22,29.26,28.88,8,2,8,39.23
2013-5-17,73.8,56.9,39.9,40.3,33.5,29.3,76,45,23,29.44,29.23,8,1,9,0.00
2013-5-18,71.6,58.5,48.0,46.9,36.9,29.6,68,46,29,29.38,29.17,10,2,10,0.00
2013-5-19,90.7,71.2,60.3,51.5,43.8,33.9,56,38,24,29.20,29.00,12,2,12,0.00
2013-5-20,88.0,67.8,57.2,66.0,54.5,46.9,96,65,32,29.03,28.85,9,2,11,0.04
2013-5-21,84.9,62.2,54.3,66.5,54.9,42.0,98,81,33,28.91,28.79,11,2,11,0.50
2013-5-22,66.2,55.4,49.8,62.4,53.4,48.5,98,93,73,28.91,28.82,6,1,6,0.33
2013-5-23,57.0,45.8,38.8,50.1,36.4,27.1,98,73,37,29.44,28.91,10,2,10,0.58
2013-5-24,61.0,46.2,33.8,31.6,26.5,22.8,75,49,26,29.59,29.41,11,2,12,0.00
2013-5-25,70.5,58.6,38.8,37.3,27.6,17.5,65,32,17,29.62,29.41,8,1,10,0.00
2013-5-26,76.3,56.8,36.1,37.7,23.4,10.2,74,33,10,29.56,29.35,57,1,57,40.68
2013-5-27,82.9,63.7,46.9,34.8,21.2,7.9,48,23,6,29.41,29.12,10,2,57,40.68
2013-5-28,59.5,55.4,52.0,56.0,45.2,22.6,96,72,26,29.14,28.88,8,1,8,0.25
2013-5-29,70.5,59.6,49.5,63.0,54.0,48.9,98,84,53,29.12,28.88,13,3,14,40.96
2013-5-30,92.3,75.6,64.8,64.1,59.2,50.1,94,61,27,29.09,29.00,15,4,15,0.08
2013-5-31,84.2,72.7,65.5,66.0,57.9,48.4,94,63,33,29.03,28.88,19,5,21,0.66
2013-6-1,82.6,66.1,55.2,62.8,56.0,45.8,89,72,39,28.91,28.73,11,2,11,41.75
2013-6-2,60.4,46.3,39.9,56.7,39.6,29.3,98,79,45,29.20,28.73,172,4,172,0.17
2013-6-3,48.6,40.6,38.7,38.5,34.3,31.9,89,78,54,29.20,29.17,13,3,13,0.00
2013-6-4,71.4,58.8,49.3,34.8,26.7,15.9,46,30,15,29.38,29.20,9,0,9,0.00
2013-6-5,63.3,54.5,34.2,46.8,36.5,0.0,65,51,37,29.38,29.23,6,0,7,0.00
2013-6-6,79.0,61.2,49.1,40.8,31.4,20.0,55,35,13,29.26,29.06,7,1,7,0.00
2013-6-7,83.5,62.7,47.1,39.6,32.4,22.8,56,34,11,29.17,29.06,6,1,7,0.00
2013-6-8,75.0,60.5,49.1,45.4,34.2,22.9,62,39,16,29.23,29.06,8,2,229,41.92
2013-6-9,84.4,67.2,50.2,46.1,40.4,29.3,69,39,21,29.32,29.12,8,2,229,0.00
2013-6-10,84.0,64.1,57.4,55.5,49.5,39.7,86,61,32,29.14,28.94,10,1,10,0.00
2013-6-11,83.7,63.8,57.7,58.3,53.6,46.5,90,72,36,29.03,28.94,12,1,12,0.00
2013-6-12,88.3,68.1,53.1,63.8,47.5,38.2,93,54,20,29.09,28.88,8,1,8,0.00
2013-6-13,76.3,61.0,52.2,48.6,44.8,39.9,82,57,34,29.20,28.88,10,2,10,0.00
2013-6-14,80.4,59.6,48.0,46.2,31.9,8.6,75,42,7,29.32,29.14,9,1,10,0.00
2013-6-15,81.5,62.5,48.4,52.0,35.2,26.2,81,38,22,29.20,28.94,13,2,13,0.03
2013-6-16,79.9,62.7,54.3,61.1,54.2,44.4,98,77,35,29.00,28.85,20,4,20,0.34
2013-6-17,80.8,60.3,52.0,56.1,49.0,42.6,92,69,31,29.17,28.94,6,0,6,0.00
2013-6-18,83.5,63.2,46.2,50.7,37.3,17.0,90,49,9,29.32,29.14,6,1,6,0.00
2013-6-19,80.6,63.3,49.6,41.4,34.5,0.0,80,37,21,29.38,29.23,10,2,10,42.29
2013-6-20,85.8,69.1,57.4,44.3,38.2,32.6,49,34,20,29.35,29.23,13,3,18,0.00
2013-6-21,66.4,64.3,62.6,46.2,45.3,44.0,53,50,47,29.32,29.26,6,1,6,0.00
2013-6-22,86.4,67.4,57.9,65.3,56.2,46.7,98,71,33,29.26,29.12,9,1,9,0.00
2013-6-23,88.5,74.3,62.4,65.5,59.4,51.8,88,64,30,29.14,29.00,13,4,14,16.83
2013-6-24,81.9,74.5,69.4,63.3,60.7,56.1,79,63,43,29.12,29.00,20,4,20,42.29
2013-6-25,79.3,70.9,62.1,62.3,58.0,52.0,82,65,42,29.00,28.94,16,5,19,42.29
2013-6-26,94.3,80.6,62.1,68.3,57.2,49.2,93,51,24,28.97,28.88,13,1,13,42.29
2013-6-27,91.4,70.9,61.2,63.8,57.9,51.2,90,67,30,28.94,28.76,11,1,11,42.29
2013-6-28,84.9,69.5,58.8,64.2,56.4,50.5,94,67,34,28.79,28.70,5,1,6,42.33
2013-6-29,83.7,68.6,59.2,58.3,52.8,46.5,88,61,31,28.94,28.73,5,0,6,0.00
2013-6-30,85.1,70.7,59.2,51.3,39.4,22.7,73,36,11,29.17,28.94,8,1,8,0.00
2013-7-1,84.4,68.8,55.8,46.2,36.5,24.0,52,32,16,29.29,29.17,9,1,9,0.00
2013-7-2,86.5,66.8,51.8,44.5,34.0,22.7,60,33,11,29.32,29.20,6,0,6,0.00
2013-7-3,85.5,69.9,59.4,46.5,40.2,34.4,48,35,21,29.26,29.12,6,0,6,0.00
2013-7-4,82.8,69.0,61.3,62.5,54.2,46.1,95,62,33,29.23,29.12,14,4,14,0.00
2013-7-5,90.0,75.3,65.7,57.3,51.9,45.6,71,47,28,29.17,29.12,17,4,17,0.00
2013-7-6,87.4,76.1,67.8,54.9,48.8,43.0,61,40,23,29.17,29.09,17,6,18,42.33
2013-7-7,89.2,73.9,66.9,63.4,55.9,47.1,82,55,31,29.09,29.03,15,2,15,0.00
2013-7-8,72.9,69.2,66.9,64.2,62.8,60.9,87,80,71,29.09,29.03,5,1,6,0.49
2013-7-9,89.1,73.8,66.2,68.8,62.7,55.7,93,72,37,29.12,28.85,9,1,9,42.87
2013-7-10,78.8,68.4,61.9,68.7,55.9,44.1,95,67,34,29.06,28.76,23,7,23,0.20
2013-7-11,83.5,68.6,56.8,59.2,47.7,35.4,86,52,21,29.26,29.06,7,1,7,43.07
2013-7-12,90.1,71.1,56.5,53.6,45.5,38.1,82,45,19,29.35,29.17,8,1,9,0.00
2013-7-13,90.9,75.9,63.9,54.9,49.2,40.5,66,42,20,29.35,29.20,15,4,15,0.00
2013-7-14,93.9,77.7,64.6,55.5,51.3,45.2,63,42,24,29.44,29.32,9,2,10,43.07
2013-7-15,97.7,80.8,66.9,59.7,54.4,46.2,70,44,20,29.47,29.38,8,1,8,0.00
2013-7-16,96.3,81.3,68.9,66.6,59.3,52.9,77,50,27,29.44,29.35,13,3,13,0.00
2013-7-17,94.5,82.1,72.7,68.3,61.7,53.3,76,53,28,29.38,29.23,20,5,20,43.07
2013-7-18,89.2,77.0,73.2,70.8,65.3,58.2,82,69,38,29.26,28.91,18,4,22,0.25
2013-7-19,86.0,78.4,66.2,68.1,60.3,54.5,81,54,40,28.91,28.73,31,8,31,0.00
2013-7-20,80.4,69.3,56.8,59.7,44.3,30.8,81,45,20,29.12,28.85,10,2,10,0.00
2013-7-21,83.5,65.6,50.0,51.1,45.6,38.9,80,51,29,29.17,29.03,172,1,172,0.00
2013-7-22,88.2,74.0,63.1,61.2,54.2,48.6,73,52,28,29.06,28.70,14,4,14,43.32
2013-7-23,76.3,64.4,58.6,63.5,45.3,34.5,85,51,35,29.06,28.70,14,4,15,0.00
2013-7-24,78.3,63.5,48.7,47.4,39.6,34.2,73,44,24,29.23,29.06,11,2,12,0.00
2013-7-25,84.0,67.3,53.8,51.5,45.1,37.9,85,49,22,29.20,29.09,14,3,14,43.32
2013-7-26,82.2,62.7,57.2,59.8,51.9,42.3,96,69,37,29.12,28.94,28,4,28,0.91
2013-7-27,63.5,59.3,55.8,60.1,52.1,42.1,95,78,53,29.00,28.88,10,2,11,44.94
2013-7-28,67.8,57.9,52.3,53.9,47.8,38.5,92,71,36,29.03,28.88,18,4,18,0.17
2013-7-29,70.7,60.0,53.1,57.6,51.3,45.2,94,76,44,29.32,29.00,18,4,18,45.15
2013-7-30,80.2,64.7,54.7,58.2,51.2,42.6,96,66,30,29.38,29.23,12,2,12,0.04
2013-7-31,80.2,67.5,59.2,60.0,53.2,46.8,92,62,34,29.26,29.00,12,4,12,0.58
2013-8-1,75.0,62.8,58.1,66.0,57.5,44.3,98,86,36,29.06,29.00,10,2,11,0.00
2013-8-2,73.6,67.1,62.1,54.3,50.0,45.0,71,55,37,29.03,28.91,15,5,15,0.13
2013-8-3,74.3,63.7,58.5,52.3,47.1,41.9,74,56,33,29.23,29.03,10,2,12,0.00
2013-8-4,77.0,65.0,57.0,51.3,43.3,33.2,77,48,24,29.38,29.23,14,2,14,45.90
2013-8-5,77.5,62.8,53.4,49.0,43.4,35.1,81,52,24,29.26,29.00,10,2,10,0.00
2013-8-6,80.8,69.8,61.3,62.3,53.8,43.8,82,58,40,29.00,28.91,11,3,11,45.90
2013-8-7,75.7,66.7,58.8,64.8,56.7,49.6,98,72,45,29.12,28.76,18,5,20,0.95
2013-8-8,80.1,65.4,54.7,56.7,44.4,33.5,80,50,22,29.17,29.09,13,2,16,0.00
2013-8-9,74.3,62.5,56.7,50.6,44.2,37.1,71,52,33,29.14,29.00,24,4,24,0.00
2013-8-10,74.7,62.9,50.4,49.4,42.1,34.5,72,48,26,29.29,29.12,13,3,14,0.00
2013-8-11,78.3,66.5,57.9,57.4,48.7,37.2,85,57,26,29.23,29.12,13,4,14,0.00
2013-8-12,79.2,65.4,56.8,62.2,53.7,41.3,97,69,32,29.14,28.97,20,4,20,0.00
2013-8-13,69.1,58.8,54.0,42.6,37.4,32.8,58,46,30,29.26,29.09,12,3,12,0.00
2013-8-14,70.5,61.5,54.9,50.1,42.6,36.9,78,52,33,29.35,29.17,20,4,20,0.00
2013-8-15,78.1,64.2,54.1,55.0,44.4,32.0,80,53,21,29.26,29.17,14,4,14,0.00
2013-8-16,88.7,69.3,54.5,62.1,48.1,36.0,90,54,19,29.35,29.20,8,2,8,0.00
2013-8-17,84.7,70.6,57.9,51.2,43.4,35.9,73,42,20,29.41,29.26,12,4,13,0.00
2013-8-18,85.6,75.8,64.6,48.8,44.2,37.3,55,34,20,29.38,29.20,13,4,13,0.00
2013-8-19,81.7,71.2,61.7,52.6,47.8,44.8,66,45,29,29.23,29.12,20,6,20,0.00
2013-8-20,88.9,75.5,66.6,59.0,53.1,47.6,71,48,26,29.20,29.12,17,5,17,0.00
2013-8-21,90.3,77.7,69.3,60.8,54.9,51.0,65,47,28,29.14,29.00,27,6,30,0.04
2013-8-22,86.2,72.5,62.4,65.6,52.9,39.2,93,55,21,29.26,29.03,15,2,16,0.04
2013-8-23,88.2,69.4,55.0,60.2,47.1,39.6,87,50,19,29.38,29.23,7,1,7,46.93
2013-8-24,63.3,61.3,59.0,49.9,44.1,40.4,68,54,46,29.44,29.35,7,2,8,0.00
2013-8-25,90.7,83.6,75.9,56.2,54.0,49.9,48,37,29,29.17,29.12,20,8,22,0.00
2013-8-26,88.0,76.2,69.1,68.6,59.4,49.5,91,58,30,29.14,29.06,19,6,21,46.97
2013-8-27,80.8,71.3,66.9,69.5,64.1,0.0,100,79,58,29.09,28.97,13,1,13,46.97
2013-8-28,88.7,73.9,63.9,71.1,61.8,53.6,96,70,34,29.20,29.00,172,1,229,0.00
2013-8-29,93.7,73.9,64.6,70.3,61.7,51.0,94,72,27,29.23,29.14,9,1,9,0.00
2013-8-30,72.3,68.8,66.9,64.9,63.0,61.3,85,82,76,29.14,28.97,6,1,6,1.00
2013-8-31,85.8,71.5,61.5,64.8,56.6,48.7,91,64,31,29.03,28.94,6,1,6,0.00
2013-9-1,77.9,67.1,60.4,68.1,58.6,51.8,90,75,43,29.00,28.79,12,3,12,0.04
2013-9-2,60.3,57.3,55.0,52.3,45.9,41.5,80,66,55,29.09,28.88,14,4,15,0.00
2013-9-3,71.2,61.1,57.7,52.5,46.7,38.1,76,60,32,29.20,29.06,20,4,20,48.01
2013-9-4,75.0,64.2,53.8,58.9,47.6,33.8,90,59,24,29.32,29.06,12,3,12,0.00
2013-9-5,73.4,59.8,49.1,43.0,34.5,28.2,68,42,21,29.50,29.32,9,2,10,0.00
2013-9-6,53.8,52.4,51.3,39.6,35.6,32.2,62,53,47,29.38,29.35,7,3,9,0.00
2013-9-13,65.1,54.2,47.3,36.4,28.9,26.9,54,38,26,29.38,29.29,4,0,4,49.34
2013-9-14,68.2,53.7,44.1,42.3,38.1,30.9,80,58,34,29.35,29.12,22,5,22,0.00
2013-11-10,43.2,39.7,38.5,25.4,20.5,16.1,57,46,35,29.41,29.12,22,8,22,0.50
2013-11-11,41.0,32.2,27.3,35.1,17.5,0.0,100,57,34,29.62,29.17,34,8,34,0.50
2013-11-12,32.0,28.6,26.6,13.6,8.0,4.1,53,41,33,29.82,29.62,19,6,19,0.50
2013-11-13,41.5,35.8,29.5,22.0,14.7,5.4,65,42,33,29.68,29.12,58,10,58,0.50
2013-11-14,46.8,41.8,38.5,29.4,22.0,17.2,64,46,37,29.14,29.03,31,9,31,0.50
2013-11-15,53.6,44.7,39.9,35.3,29.2,24.1,72,55,36,29.17,29.06,15,5,15,0.50
2013-11-16,55.0,43.4,39.7,48.9,31.0,24.9,83,62,51,29.20,28.73,26,6,26,0.13
2013-11-17,59.4,54.2,44.2,56.5,50.7,36.2,98,88,72,28.76,28.20,41,7,41,2.57
2013-11-18,44.6,37.8,31.5,36.5,19.7,10.1,73,48,36,29.38,28.44,49,21,49,13.81
2013-11-19,40.1,31.5,26.8,16.2,12.3,9.1,56,45,35,29.62,29.38,11,3,13,0.00
2013-11-20,45.5,37.0,31.3,18.7,14.4,9.6,49,40,28,29.59,29.44,19,5,19,13.81
2013-11-21,42.3,39.6,35.8,36.5,28.0,16.8,86,64,41,29.44,29.38,13,3,13,0.00
2013-11-22,39.4,33.3,29.7,35.2,21.7,7.8,87,64,35,29.62,29.41,24,5,24,0.00
2013-11-23,33.1,20.9,16.5,16.6,2.7,-4.9,77,45,33,29.76,29.47,27,8,27,0.00
2013-11-24,22.6,19.4,17.1,8.2,0.0,-4.8,58,42,36,29.79,29.65,20,6,20,0.00
2013-11-27,19.0,18.7,18.7,2.4,2.3,2.1,48,48,48,29.32,29.32,10,5,10,0.00
2013-11-29,34.3,24.6,0.0,14.6,10.0,0.0,56,41,37,29.82,29.71,13,5,13,0.00
2013-11-30,36.7,32.1,25.7,27.3,18.5,8.5,75,57,46,29.71,29.26,23,5,23,0.00
2013-12-1,35.1,33.1,30.6,27.4,22.4,17.9,77,65,52,29.38,29.26,7,2,7,0.00
2013-12-2,34.2,30.0,26.1,20.0,14.4,0.0,100,52,43,29.26,29.12,115,3,115,13.81
2013-12-3,30.0,26.4,23.0,26.2,16.8,8.4,86,67,48,29.23,29.12,115,4,115,0.00
2013-12-4,47.1,34.3,29.8,46.0,31.9,0.0,98,91,84,29.14,28.64,20,7,20,0.00
2013-12-5,48.7,32.1,20.5,47.0,18.0,3.8,97,57,43,29.35,28.64,38,16,38,0.50
2013-12-6,21.4,20.3,19.0,6.4,2.6,-1.3,55,46,37,29.62,29.32,26,11,26,0.00
2013-12-7,19.4,17.9,16.7,1.4,-1.0,-4.2,46,43,38,29.82,29.59,29,12,29,0.00
2013-12-8,20.3,17.8,15.8,13.1,4.1,-2.6,75,55,40,29.79,29.29,25,5,25,0.00
2013-12-9,27.7,21.1,11.8,22.8,9.9,-2.8,88,63,43,29.32,29.00,115,11,115,0.04
2013-12-10,18.0,13.9,10.9,9.9,-0.0,-3.6,76,54,43,29.26,29.00,29,11,29,0.00
2013-12-11,15.3,13.0,11.8,2.9,-1.3,-4.9,61,52,44,29.59,29.26,30,12,32,0.00
2013-12-12,19.8,15.6,10.9,8.4,-0.3,-5.8,73,49,41,29.56,29.29,30,14,30,0.00
2013-12-13,19.8,12.2,5.0,1.4,-7.0,-15.6,46,41,36,29.68,29.29,33,5,33,14.35
2013-12-14,19.8,13.5,4.5,9.1,-1.7,-16.1,71,51,37,29.71,29.14,12,5,12,14.35
2013-12-15,22.6,17.2,12.6,15.5,8.4,0.2,81,68,45,29.23,28.94,29,5,29,0.54
2013-12-16,21.6,12.7,3.2,5.6,-2.6,-8.6,66,51,34,29.41,29.17,16,4,16,0.00
2013-12-17,28.4,22.1,14.7,17.7,12.5,4.1,81,67,44,29.17,29.00,20,6,20,0.00
2013-12-18,26.6,22.8,20.1,14.2,7.8,3.3,61,52,46,29.29,28.97,23,6,23,0.00
2013-12-19,31.5,26.5,20.8,18.7,13.4,8.0,68,57,49,29.32,28.97,18,4,18,0.00
2013-12-20,25.5,21.3,17.8,15.2,12.4,8.8,76,68,55,29.29,29.09,12,4,12,0.00
2013-12-21,28.8,25.0,21.6,19.2,16.3,13.5,83,70,55,29.23,29.06,12,4,12,0.00
2013-12-22,25.0,19.9,13.8,15.9,9.7,4.1,76,64,53,29.32,29.03,19,5,19,0.00
2013-12-23,20.5,13.2,8.4,7.5,0.5,-6.7,69,57,44,29.59,29.32,9,2,9,0.00
2013-12-24,20.3,7.6,-1.8,-2.1,-10.4,-15.9,50,43,34,29.76,29.59,12,3,12,0.00
2013-12-25,22.8,18.3,10.0,16.6,6.1,-11.0,79,60,37,29.68,29.23,17,6,18,0.00
2013-12-26,24.3,21.4,20.3,15.6,9.9,0.0,100,62,44,29.47,29.23,24,5,24,0.00
2013-12-27,37.0,26.4,19.6,25.1,12.9,4.6,69,56,44,29.47,29.06,29,7,29,0.08
2013-12-28,44.8,36.6,32.7,29.2,24.3,20.1,78,62,43,29.20,28.94,18,4,19,14.48
2013-12-29,37.2,21.5,10.6,30.6,10.0,-5.2,87,61,48,29.26,28.88,17,4,17,0.00
2013-12-30,10.6,4.7,0.0,0.0,-2.3,-5.2,48,21,48,29.44,29.23,18,5,18,0.00
2013-12-31,10.8,3.6,0.0,0.0,-3.2,-9.0,45,18,45,29.50,29.17,32,11,32,0.00
2014-1-1,18.5,7.8,2.7,-3.6,-11.7,-18.8,45,40,35,29.68,29.47,15,4,15,0.00
2014-1-2,17.4,4.7,-2.6,-3.3,-16.2,-22.4,41,36,35,29.53,29.41,8,3,8,0.00